Location: Couloutre
(47.4081°N, 3.2259°E)
Time: 09:04:17
(UTC+00:00)

Meteor 1-11 Rocket - Pass Details

Date: 27 February 2020
Orbit: 831 x 916 km, 81.2° (Epoch: 27 March)

Event Time Altitude Azimuth Distance (km) Brightness Sun altitude
Rises 19:07:27 0° 163° (SSE) 3,404 6.6 -17.5°
Reaches altitude 10° 19:10:03 10° 155° (SSE) 2,462 5.8 -18.0°
Maximum altitude 19:15:02 35° 91° (E) 1,329 4.2 -18.8°
Drops below altitude 10° 19:19:59 10° 27° (NNE) 2,452 5.9 -19.6°
Sets 19:22:34 0° 19° (NNE) 3,388 6.7 -20.1°
